Location: Curupao
(10.4996°N, 66.6442°W)
Time: 01:44:33
(UTC+00:00)

SL-16 R/B - Pass Details

Date: 23 May 2024
Orbit: 985 x 1006 km, 99.7° (Epoch: 12 June)

Event Time Altitude Azimuth Distance (km) Brightness Sun altitude
Exits shadow 08:46:57 15° 290° (WNW) 2,427 4.2 -18.1°
Drops below altitude 10° 08:48:30 10° 303° (WNW) 2,773 4.6 -17.8°
Sets 08:51:45 0° 320° (NW) 3,724 5.4 -17.1°
